EXACTVIEW-1 (ADS-1B)

Last updated on Sun Jun 21 2026 00:02:51 GMT+0000 (Coordinated Universal Time)

1 38709U 12039C 26171.33029843 .00000089 00000+0 57653-4 0 9997 2 38709 98.9781 288.7915 0011328 157.6726 202.4948 14.24985343723150
UTC large
Height (km)
Speed (km/s)
/
Latitude / Longitude
Inclination (degrees)
Orbital Period (minutes)
Azimuth
Elevation
Range (km)
Doppler Factor

Next 0 passes for location: London (51.5072 / 0.1276)

No passes found over London.
EXACTVIEW-1 (ADS-1B)